GW1020 Weather Reports


time (UTC)temp
C
wind
direction
speed
KPH
gust
KPH
rain 1hr
cm
rain 24hr
cm
rain mn
cm
humidity
%
barometer
mb
20260506114205 18 117 3.2 11.3 0.00 0.51 0.03 66 1005.6
20260506113705 18 79 4.8 11.3 0.00 0.51 0.03 64 1005.5
20260506112705 18 94 3.2 8.0 0.00 0.51 0.03 65 1005.6
20260506112205 18 101 3.2 8.0 0.00 0.51 0.03 64 1005.6
20260506111705 18 101 3.2 9.7 0.00 0.51 0.03 66 1005.8
20260506111205 18 101 3.2 9.7 0.00 0.51 0.03 64 1005.9
20260506110733 18 98 3.2 9.7 0.00 0.51 0.03 65 1005.9
20260506110204 18 99 3.2 4.8 0.00 0.51 0.03 66 1005.9
20260506105704 18 343 1.6 9.7 0.00 0.51 0.03 67 1006.0
20260506105204 18 342 3.2 9.7 0.00 0.51 0.03 67 1006.1
20260506104704 18 342 3.2 9.7 0.00 0.51 0.03 68 1006.1
20260506104205 18 342 1.6 6.4 0.00 0.51 0.03 65 1006.1
20260506103705 18 342 1.6 8.0 0.00 0.51 0.03 68 1006.2
20260506103204 18 313 1.6 8.0 0.00 0.51 0.03 67 1006.2
20260506102704 18 313 3.2 8.0 0.00 0.51 0.03 67 1006.3
20260506102204 18 300 1.6 8.0 0.00 0.51 0.03 68 1006.3
20260506101704 18 296 4.8 8.0 0.00 0.51 0.03 69 1006.3
20260506101204 18 296 3.2 8.0 0.00 0.51 0.03 66 1006.3
20260506100705 17 300 1.6 6.4 0.00 0.51 0.03 68 1006.3
20260506095705 17 302 3.2 6.4 0.00 0.51 0.03 67 1006.3
20260506095205 17 302 3.2 8.0 0.00 0.51 0.03 68 1006.4
20260506094704 17 302 3.2 8.0 0.00 0.51 0.03 68 1006.4
20260506094205 17 300 3.2 8.0 0.00 0.51 0.03 67 1006.4
20260506093705 17 297 1.6 9.7 0.00 0.51 0.03 68 1006.4
20260506093204 17 296 3.2 9.7 0.00 0.51 0.03 69 1006.5
20260506092704 17 296 3.2 9.7 0.00 0.51 0.03 67 1006.4
20260506092205 17 333 3.2 8.0 0.00 0.51 0.03 70 1006.5
20260506091704 17 336 3.2 8.0 0.00 0.51 0.03 65 1006.4
20260506091204 17 336 3.2 9.7 0.00 0.51 0.03 67 1006.4
20260506090705 17 337 3.2 9.7 0.00 0.51 0.03 67 1006.3
20260506090205 17 339 3.2 9.7 0.00 0.51 0.03 68 1006.3
20260506085704 17 339 3.2 8.0 0.00 0.51 0.03 70 1006.4
20260506085205 17 355 1.6 8.0 0.00 0.51 0.03 70 1006.5
20260506084705 17 276 3.2 8.0 0.00 0.51 0.03 72 1006.5
20260506084205 16 318 1.6 11.3 0.00 0.51 0.03 74 1006.5
20260506083704 16 315 3.2 11.3 0.00 0.51 0.03 72 1006.5
20260506083204 16 335 3.2 11.3 0.00 0.51 0.03 69 1006.5
20260506082704 17 281 3.2 9.7 0.00 0.51 0.03 74 1006.5
20260506082205 16 321 3.2 9.7 0.00 0.51 0.03 74 1006.6
20260506081705 17 306 1.6 6.4 0.00 0.51 0.03 71 1006.6
20260506081205 16 217 0.0 3.2 0.00 0.51 0.03 78 1006.5
20260506080705 16 209 1.6 4.8 0.00 0.51 0.03 75 1006.7
20260506073204 15 226 1.6 8.0 0.00 0.51 0.03 79 1006.8
20260506072704 15 209 1.6 6.4 0.00 0.51 0.03 81 1006.8
20260506072204 14 207 1.6 6.4 0.00 0.51 0.03 81 1006.7
20260506071704 14 208 0.0 4.8 0.00 0.51 0.03 81 1006.6
20260506071205 13 167 0.0 3.2 0.00 0.51 0.03 84 1006.6
20260506070705 13 166 0.0 3.2 0.00 0.51 0.03 83 1006.5
20260506070205 13 166 0.0 3.2 0.00 0.51 0.03 83 1006.6
20260506062205 11 166 1.6 8.0 0.00 0.51 0.03 88 1006.8
20260506061705 11 166 3.2 8.0 0.00 0.51 0.03 89 1006.8
20260506061205 11 166 1.6 8.0 0.00 0.51 0.03 89 1006.8
20260506060705 11 165 0.0 3.2 0.00 0.51 0.03 90 1006.8
20260506051204 9 173 0.0 0.0 0.00 0.51 0.03 92 1006.9
20260506050705 9 174 0.0 1.6 0.00 0.51 0.03 92 1006.9
20260506044204 9 174 1.6 3.2 0.00 0.51 0.03 91 1006.8
20260506043704 9 174 0.0 3.2 0.00 0.51 0.03 92 1006.8
20260506043204 9 173 0.0 3.2 0.00 0.51 0.03 92 1006.9
20260506042704 9 174 0.0 3.2 0.00 0.51 0.03 91 1006.8
20260506042204 9 174 0.0 3.2 0.00 0.51 0.03 91 1006.8
20260506041704 9 174 0.0 4.8 0.00 0.51 0.03 92 1006.9
20260506040704 9 174 1.6 8.0 0.00 0.51 0.03 92 1007.0
20260506040205 9 173 3.2 8.0 0.00 0.51 0.03 91 1007.0
20260506035705 9 174 3.2 6.4 0.00 0.51 0.03 91 1007.0
20260506035204 9 186 0.0 4.8 0.00 0.51 0.03 91 1007.1
20260506034705 9 186 0.0 4.8 0.00 0.51 0.03 91 1007.1
20260506034205 9 187 0.0 0.0 0.00 0.51 0.03 91 1007.1
20260506033705 9 186 0.0 0.0 0.00 0.51 0.03 91 1007.1
20260506032705 9 186 0.0 0.0 0.00 0.51 0.03 90 1007.1
20260506032205 10 186 0.0 0.0 0.00 0.51 0.03 90 1007.0
20260506031704 10 187 0.0 0.0 0.00 0.51 0.03 90 1007.0
20260506031205 10 186 0.0 0.0 0.00 0.51 0.03 90 1006.9
20260506030705 10 186 0.0 0.0 0.00 0.51 0.03 89 1006.9
20260506030205 10 186 0.0 0.0 0.00 0.51 0.03 89 1006.9
20260506025705 10 187 0.0 0.0 0.00 0.51 0.03 89 1006.9
20260506025204 10 186 0.0 4.8 0.00 0.51 0.03 89 1007.0
20260506024704 11 186 1.6 6.4 0.00 0.51 0.03 88 1007.1
20260506024204 11 186 1.6 8.0 0.00 0.51 0.03 88 1007.0
20260506023704 11 187 3.2 8.0 0.00 0.51 0.03 89 1007.2
20260506023204 11 187 3.2 8.0 0.00 0.51 0.03 89 1007.4
20260506022705 10 187 3.2 8.0 0.00 0.51 0.03 90 1007.6
20260506022204 10 187 3.2 8.0 0.00 0.51 0.03 90 1007.7
20260506021725 10 187 3.2 6.4 0.00 0.51 0.03 90 1007.6
20260506021204 10 186 3.2 6.4 0.00 0.51 0.03 90 1007.5
20260506020705 10 186 3.2 6.4 0.00 0.51 0.03 91 1007.5
20260506020205 10 186 3.2 6.4 0.00 0.51 0.03 91 1007.6
20260506015705 10 186 1.6 8.0 0.00 0.51 0.03 91 1007.6
20260506015204 10 186 3.2 8.0 0.00 0.51 0.03 91 1007.6
20260506014705 10 186 3.2 8.0 0.00 0.51 0.03 92 1007.6
20260506013705 10 201 1.6 4.8 0.00 0.51 0.03 92 1007.6
20260506013204 10 201 1.6 4.8 0.00 0.51 0.03 92 1007.4
20260506012705 10 201 1.6 4.8 0.00 0.51 0.03 91 1007.5
20260506012205 10 201 0.0 4.8 0.00 0.51 0.03 91 1007.5
20260506011705 10 202 0.0 0.0 0.00 0.51 0.03 91 1007.5
20260506011205 10 202 0.0 0.0 0.00 0.51 0.03 91 1007.6
20260506010705 10 201 0.0 0.0 0.00 0.51 0.03 91 1007.5
20260506010205 10 201 0.0 3.2 0.00 0.51 0.03 91 1007.5
20260506005705 10 201 0.0 3.2 0.00 0.51 0.03 90 1007.6
20260506005205 10 202 0.0 3.2 0.00 0.51 0.03 90 1007.5
20260506004705 10 201 0.0 0.0 0.00 0.51 0.03 90 1007.6
20260506004206 11 201 0.0 0.0 0.03 0.51 0.03 90 1007.8
20260506003705 11 201 0.0 3.2 0.03 0.51 0.03 90 1007.7
20260506003205 11 201 0.0 3.2 0.03 0.51 0.03 89 1007.7
20260506002705 11 201 0.0 6.4 0.03 0.51 0.03 89 1007.7
20260506001705 11 201 1.6 4.8 0.03 0.51 0.03 90 1007.9
20260506001205 11 200 1.6 4.8 0.03 0.51 0.03 90 1007.9
20260506000705 11 201 1.6 4.8 0.03 0.51 0.03 90 1008.0
20260506000205 11 201 1.6 4.8 0.03 0.51 0.03 90 1008.1
20260505235705 11 201 1.6 9.7 0.03 0.51 0.03 90 1008.1
20260505235204 11 201 1.6 9.7 0.03 0.51 0.03 90 1008.2
20260505234705 11 201 1.6 9.7 0.00 0.48 0.00 90 1008.3
20260505234205 11 213 1.6 6.4 0.00 0.48 0.00 90 1008.3
20260505233205 11 208 1.6 8.0 0.00 0.48 0.00 91 1008.3
20260505232722 11 211 3.2 8.0 0.00 0.48 0.00 90 1008.3
20260505232205 11 198 1.6 8.0 0.00 0.48 0.00 90 1008.3
20260505231705 11 213 1.6 8.0 0.00 0.48 0.00 90 1008.2
20260505231205 11 213 3.2 8.0 0.00 0.48 0.00 90 1008.3
20260505230723 11 213 3.2 8.0 0.00 0.48 0.00 90 1008.3
20260505230204 11 213 3.2 8.0 0.00 0.48 0.00 90 1008.2
20260505225204 12 213 1.6 6.4 0.00 0.48 0.00 90 1008.3
20260505224220 12 229 0.0 4.8 0.00 0.48 0.00 91 1008.3
20260505223705 12 228 0.0 4.8 0.00 0.48 0.00 91 1008.2
20260505223205 12 227 1.6 4.8 0.00 0.48 0.00 91 1008.2
20260505222704 12 228 1.6 4.8 0.00 0.48 0.00 91 1008.2
20260505221705 12 228 0.0 3.2 0.00 0.48 0.00 91 1008.1
20260505221231 12 228 0.0 4.8 0.00 0.48 0.00 91 1008.0
20260505220705 12 228 1.6 4.8 0.00 0.48 0.00 91 1008.1
20260505220205 12 228 3.2 4.8 0.00 0.48 0.48 91 1008.2
20260505215705 12 229 3.2 4.8 0.00 0.48 0.48 92 1008.2
20260505215205 12 228 1.6 4.8 0.00 0.48 0.48 92 1008.3
20260505213705 12 228 0.0 0.0 0.00 0.48 0.48 92 1008.4
20260505213205 12 228 0.0 0.0 0.00 0.48 0.48 91 1008.4
20260505212205 12 228 0.0 1.6 0.00 0.48 0.48 91 1008.4
20260505211705 12 228 0.0 3.2 0.00 0.48 0.48 91 1008.4
20260505211205 12 228 0.0 3.2 0.00 0.48 0.48 91 1008.3
20260505210705 12 228 0.0 3.2 0.00 0.48 0.48 91 1008.3
20260505205705 12 228 0.0 6.4 0.00 0.48 0.48 91 1008.3
20260505205205 12 228 1.6 6.4 0.00 0.48 0.48 91 1008.2
20260505204705 12 228 3.2 9.7 0.00 0.48 0.48 91 1008.2
20260505204205 12 228 3.2 9.7 0.00 0.48 0.48 90 1008.2
20260505203705 12 228 3.2 9.7 0.00 0.48 0.48 90 1008.2
20260505203205 12 240 3.2 8.0 0.00 0.48 0.48 90 1008.2
20260505202705 13 240 3.2 9.7 0.00 0.48 0.48 90 1008.2
20260505202204 13 240 3.2 9.7 0.00 0.48 0.48 90 1008.1
20260505201705 13 240 3.2 9.7 0.00 0.48 0.48 90 1008.1
20260505201205 13 254 3.2 8.0 0.00 0.48 0.48 90 1007.9
20260505200705 13 247 3.2 8.0 0.00 0.48 0.48 90 1007.9
20260505200205 13 248 3.2 8.0 0.00 0.48 0.48 90 1007.8
20260505195204 13 206 1.6 8.0 0.00 0.48 0.48 91 1007.8
20260505194705 13 197 1.6 3.2 0.00 0.48 0.48 91 1007.7
20260505194205 13 180 0.0 3.2 0.00 0.48 0.48 91 1007.6
20260505193709 13 180 0.0 3.2 0.00 0.48 0.48 91 1007.5
20260505193205 13 180 1.6 4.8 0.00 0.48 0.48 91 1007.6
20260505192705 13 180 1.6 4.8 0.00 0.48 0.48 91 1007.6
20260505192204 13 180 1.6 4.8 0.00 0.48 0.48 91 1007.5
20260505191705 13 180 1.6 3.2 0.00 0.48 0.48 91 1007.5
20260505191205 13 180 0.0 4.8 0.03 0.48 0.48 91 1007.5
20260505190705 13 180 0.0 4.8 0.03 0.48 0.48 90 1007.5
20260505190205 13 180 1.6 4.8 0.05 0.48 0.48 90 1007.4
20260505185205 13 180 0.0 3.2 0.08 0.48 0.48 91 1007.5
20260505184705 13 180 0.0 3.2 0.10 0.48 0.48 90 1007.5
20260505184205 13 180 0.0 3.2 0.10 0.48 0.48 90 1007.5
20260505183704 13 180 0.0 1.6 0.10 0.48 0.48 90 1007.5
20260505182704 14 180 0.0 4.8 0.10 0.48 0.48 90 1007.4
20260505181705 14 180 1.6 4.8 0.10 0.48 0.46 89 1007.2
20260505181204 14 230 0.0 0.0 0.08 0.46 0.46 89 1007.2
20260505180205 14 230 0.0 1.6 0.05 0.43 0.43 88 1007.2
20260505175205 14 231 0.0 3.2 0.03 0.41 0.41 88 1007.2
20260505174705 14 230 0.0 4.8 0.00 0.38 0.38 88 1007.3
20260505174205 14 230 1.6 6.4 0.00 0.38 0.38 88 1007.6
20260505173705 14 230 1.6 6.4 0.00 0.38 0.38 87 1007.7
20260505173205 14 230 1.6 6.4 0.00 0.38 0.38 87 1007.7
20260505172705 14 231 1.6 4.8 0.00 0.38 0.38 87 1007.6
20260505172205 14 231 1.6 4.8 0.00 0.38 0.38 86 1007.5
20260505171704 15 203 1.6 8.0 0.00 0.38 0.38 86 1007.6
20260505171205 15 67 1.6 8.0 0.00 0.38 0.38 86 1007.5
20260505170705 15 65 1.6 8.0 0.00 0.38 0.38 85 1007.4
20260505170204 15 65 1.6 3.2 0.00 0.38 0.38 84 1007.3
20260505165704 15 64 0.0 3.2 0.00 0.38 0.38 85 1007.2
20260505165204 15 64 0.0 4.8 0.00 0.38 0.38 83 1007.2
20260505164704 15 64 0.0 4.8 0.00 0.38 0.38 85 1007.2
20260505164205 15 64 0.0 4.8 0.00 0.38 0.38 85 1007.2
20260505163705 15 65 1.6 4.8 0.00 0.38 0.38 83 1007.2
20260505163204 15 64 1.6 4.8 0.00 0.38 0.38 83 1007.2
20260505162705 15 59 0.0 4.8 0.00 0.38 0.38 84 1007.3
20260505162205 15 57 1.6 4.8 0.03 0.38 0.38 82 1007.3
20260505161705 15 57 1.6 4.8 0.03 0.38 0.38 84 1007.2
20260505161204 15 57 0.0 8.0 0.05 0.38 0.38 85 1007.3
20260505160205 15 54 1.6 9.7 0.05 0.38 0.38 87 1007.2
20260505153204 14 294 0.0 0.0 0.05 0.38 0.38 86 1007.7
20260505152705 14 294 0.0 1.6 0.05 0.36 0.36 88 1007.8
20260505152205 14 294 0.0 1.6 0.05 0.36 0.36 88 1007.8
20260505151205 13 294 0.0 1.6 0.05 0.33 0.33 87 1007.8
20260505150705 14 294 0.0 1.6 0.08 0.33 0.33 88 1007.7
20260505150205 14 294 0.0 1.6 0.10 0.33 0.33 88 1007.8
20260505130205 16 303 17.7 38.6 0.00 0.00 0.00 76 1007.9
20260505124704 20 255 4.8 9.7 0.00 0.00 0.00 64 1007.7
20260505124205 20 292 3.2 8.0 0.00 0.00 0.00 62 1007.5
20260505123704 20 232 3.2 11.3 0.00 0.00 0.00 62 1007.4
20260505123204 20 231 4.8 11.3 0.00 0.00 0.00 61 1007.4
20260505122205 20 304 4.8 9.7 0.00 0.00 0.00 61 1007.5
20260505121705 20 244 3.2 9.7 0.00 0.00 0.00 61 1007.5
20260505121205 20 326 1.6 9.7 0.00 0.00 0.00 62 1007.4
20260505120705 20 325 3.2 9.7 0.00 0.00 0.00 63 1007.4
20260505120205 20 325 4.8 9.7 0.00 0.00 0.00 63 1007.5
20260505115704 20 325 3.2 8.0 0.00 0.00 0.00 63 1007.5
20260505115205 20 314 1.6 9.7 0.00 0.00 0.00 64 1007.4
20260505114705 20 314 1.6 9.7 0.00 0.00 0.00 64 1007.4